Powrót do katalogu

USA 3

AktywnyMilitariaPO
NORAD 15071·PAYLOAD·🇺🇸 United States

Wystrzelony Jun 25, 1984 z Vandenberg Space Force Base

Loading…

Następne Przeloty (najbliższe 24 godziny)

TLE

ŚwieżeSource: Space-Track

Epoka: Sep 14, 2026, 00:33 UTC

1 15071U 84065C   26257.02307294  .00003527  00000-0  19209-3 0  9997
2 15071  95.8702 106.0089 0004870  35.3408 324.8150 15.14832622128562

Śledź USA 3 w czasie rzeczywistym z AllMySat

Download on the App Store